Regional Weather Roundup
Issued by NWS

Home | Current Version | Previous Version | Graphics & Text | Print | Product List | Glossary On
Versions: 1 2 3 4 5 6 7 8 9 10 11 12 13 14 15 16 17 18 19 20 21 22 23 24 25 26 27 28 29 30 31 32 33 34 35 36 37 38 39 40 41 42 43 44 45 46 47 48 49 50
000
ASUS45 KSLC 280410
RWRUT

UTAH REGIONAL WEATHER ROUNDUP
NATIONAL WEATHER SERVICE SALT LAKE CITY UT
900 PM MST FRI FEB 27 2015

UTZ001>011-023>025-280500-

NORTHERN UTAH

CITY           SKY/WX    TMP DP  RH WIND       PRES   REMARKS
BRIGHAM CITY   CLEAR     32  27  80 W3        29.72S
HILL AFB       CLEAR     33  20  58 E10       29.70S WCI  25
LOGAN          CLEAR     33  27  78 S3        29.73S
OGDEN          CLEAR     31  22  69 S3        29.70S
PROVO AIRPORT  NOT AVBL
SALT LAKE CITY PTCLDY    34  26  72 E6        29.70S WCI  29
VERNAL         CLOUDY    30  15  53 W5        29.76R WCI  25
WENDOVER       CLOUDY    39  25  56 N15       29.67R WCI  31
HEBER CITY     PTCLDY    27  21  80 CALM      29.71S
WEST JORDAN    CLEAR     30  27  86 CALM      29.70F

$$

UTZ012>022-026-027-280500-

SOUTHERN/CENTRAL UTAH

CITY           SKY/WX    TMP DP  RH WIND       PRES   REMARKS
BLANDING       CLOUDY    29  28  97 CALM      29.85S
BRYCE CANYON   FOG       11  10  96 W5        29.71S VSB 3/4 WCI   3
CEDAR CITY     PTCLDY    34  23  64 S3        29.64F
DELTA          PTCLDY    35  23  61 NE8       29.66S WCI  28
HANKSVILLE     PTCLDY    32  28  86 NE3       29.76R
MILFORD        CLEAR     28  12  51 W7        29.64S WCI  21
MOAB/CYNLANDS  CLOUDY    38  27  64 S5        29.74R WCI  34
PRICE          CLOUDY    29  20  69 N5        29.73S WCI  24
ST GEORGE      MOCLDY    50  30  46 SE6       29.65R
KANAB          PTCLDY    34  32  93 E7        29.74S WCI  28

$$

REGIONAL REPORTS     COLORADO/ARIZONA

CITY           SKY/WX    TMP DP  RH WIND       PRES   REMARKS
CRAIG, CO        N/A     20  11  68 MISG      29.77R
GRAND JUNCTION CLEAR     30  25  81 E10       29.77R WCI  21
RIFLE          PTCLDY    27  22  81 SE8       29.77S WCI  19
MONTROSE       CLEAR     23  19  85 S6        29.79S WCI  16
CORTEZ         CLOUDY    30  29  96 CALM      29.77F
PAGE, AZ       CLOUDY    40  35  83 CALM      29.72S
GRAND CANYON   CLOUDY    33  31  92 CALM      29.73R
KINGMAN        PTCLDY    49  31  49 S8        29.64S
FLAGSTAFF      CLOUDY    38  23  55 W6        29.74R WCI  33

$$

REGIONAL REPORTS    NEVADA/IDAHO/WYOMING

CITY           SKY/WX    TMP DP  RH WIND       PRES   REMARKS
LAS VEGAS, NV  MOCLDY    61  30  31 S8        29.52S
ELY            CLOUDY    30  24  78 N3        29.62F
ELKO           CLOUDY    37  28  70 SW5       29.60S WCI  33
POCATELLO, ID  PTCLDY    27  23  85 NE7       29.73S WCI  19
BURLEY         CLOUDY    35  25  66 E15       29.68F WCI  25
EVANSTON, WY   PTCLDY    24  18  77 SE5       29.70S WCI  18
ROCK SPRINGS   CLOUDY    22  15  75 S7        29.73R WCI  13

$$



USA.gov is the U.S. government's official web portal to all federal, state and local government web resources and services.